Flag for U.S.A. Weather past 2 weeks in Appleton, Wisconsin, U.S.A.

Now
37 °F

Clear.


Feels Like: 34 °F
Forecast: 34 / 64 °F
Wind: 5 mph from North

Location: Appleton / Outagamie

Current Time: Apr 28, 2015 at 7:28:26 AM

Latest Report: Apr 28, 2015 at 6:45 AM


Visibility: 10 mi

Pressure: 30.19 "Hg

Humidity: 75%

Dew point: 30 °F

Location of AppletonLocation

Historic Weather in Appleton — Graph

°F

Appleton temperature yesterday

Maximum temperature yesterday: 63 °F (at 2:45 PM)
Minimum temperature yesterday: 36 °F (at 1:55 AM)
Average temperature yesterday: 45 °F

Past Weeks' High & Low Weather Summary

 TemperatureHumidityPressure
High72 °F (Apr 17, 1:45 PM)100% (Apr 13, 6:45 AM)30.36 "Hg (Apr 13, 6:45 AM)
Low28 °F (Apr 23, 6:45 AM)14% (Apr 14, 4:45 PM)29.20 "Hg (Apr 20, 5:15 AM)
Average44 °F56%29.94 "Hg
* Reported Apr 13 5:15 AM — Apr 28 5:45 AM, Appleton, Weather by CustomWeather, © 2015

Note: Actual official high and low records may vary slightly from our data, if they occured in-between our weather recording intervals... More about our weather records

Advertising

Appleton weather history for previous 24 hours

 ConditionsComfort  
Time TempWeatherWind HumidityBarometerVisibility
5:45 AM
Tue, Apr 28
N/AClear.5 mphN/A30.17 "Hg10 mi
5:15 AM34 °FClear.6 mph87%30.18 "Hg10 mi
4:55 AM36 °FClear.5 mph81%30.17 "Hg10 mi
4:35 AM34 °FClear.5 mph87%30.17 "Hg10 mi
4:15 AM36 °FClear.7 mph87%30.17 "Hg10 mi
3:55 AM36 °FClear.6 mph87%30.17 "Hg10 mi
3:35 AM34 °FClear.6 mph87%30.16 "Hg10 mi
3:15 AM36 °FClear.5 mph81%30.16 "Hg10 mi
2:55 AM34 °FClear.5 mph87%30.16 "Hg10 mi
2:35 AM37 °FClear.5 mph81%30.16 "Hg10 mi
2:15 AM36 °FClear.6 mph81%30.16 "Hg10 mi
1:55 AM37 °FClear.5 mph75%30.16 "Hg10 mi
1:35 AM36 °FClear.3 mph81%30.16 "Hg10 mi
1:15 AM36 °FClear.3 mph81%30.16 "Hg10 mi
12:55 AM36 °FClear.3 mph87%30.17 "Hg10 mi
12:35 AM36 °FClear.3 mph81%30.17 "Hg10 mi
12:15 AM36 °FClear.No wind81%30.17 "Hg10 mi
11:55 PM
Mon, Apr 27
41 °FClear.No wind70%30.16 "Hg10 mi
11:35 PM41 °FClear.No wind70%30.16 "Hg10 mi
11:15 PM43 °FClear.3 mph66%30.16 "Hg10 mi
9:45 PM46 °FClear.7 mph57%30.14 "Hg10 mi
8:45 PM48 °FSunny.9 mph58%30.12 "Hg10 mi
7:45 PM54 °FSunny.14 mph51%30.10 "Hg10 mi
5:45 PM63 °FPassing clouds.7 mph30%30.08 "Hg10 mi
4:45 PM63 °FPassing clouds.6 mph27%30.08 "Hg10 mi
3:45 PM63 °FPassing clouds.9 mph27%30.09 "Hg10 mi
2:45 PM63 °FPassing clouds.12 mph27%30.11 "Hg10 mi
1:45 PM59 °FPassing clouds.12 mph31%30.12 "Hg10 mi
12:45 PM57 °FScattered clouds.14 mph36%30.13 "Hg10 mi
11:45 AM55 °FPassing clouds.14 mph38%30.14 "Hg10 mi
10:45 AM52 °FPassing clouds.12 mph47%30.14 "Hg10 mi
9:45 AM50 °FPassing clouds.10 mph47%30.13 "Hg10 mi
8:45 AM46 °FPassing clouds.10 mph53%30.14 "Hg10 mi
7:45 AM43 °FPassing clouds.13 mph57%30.12 "Hg10 mi
Weather by CustomWeather, © 2015

See weather overviewHow to use our weather pages